Home > Weather > Santa Clara > Past weeks

Flag for Cuba Weather for the Past 2 Weeks in Santa Clara, Cuba

Now
68 °F

Partly sunny.


Feels Like: 68 °F
Forecast: 58 / 70 °F
Wind: 1 mph from North

Location: Cienfuegos - Las Villas

Current Time: Feb 7, 2016 at 10:56:13 AM

Latest Report: Feb 7, 2016 at 9:50 AM


Visibility: N/A

Pressure: 30.07 "Hg

Humidity: 94%

Dew point: 66 °F

Location of Santa ClaraLocation

Historic Weather in Santa Clara — Graph

°F

Santa Clara Temperature Yesterday

Maximum temperature yesterday: 82 °F (at 1:58 PM)
Minimum temperature yesterday: 66 °F (at 4:58 AM)
Average temperature yesterday: 73 °F

High & Low Weather Summary for the Past Weeks

 TemperatureHumidityPressure
High86 °F (Jan 27, 1:50 PM)100% (Jan 27, 1:58 AM)30.21 "Hg (Jan 27, 1:58 AM)
Low50 °F (Jan 25, 4:57 AM)50% (Jan 24, 2:50 PM)29.89 "Hg (Jan 28, 1:58 PM)
Average72 °F80%30.05 "Hg
* Reported Jan 23 8:58 AM — Feb 7 8:50 AM, Santa Clara, Weather by CustomWeather, © 2016

Note: Actual official high and low records may vary slightly from our data, if they occured in-between our weather recording intervals... More about our weather records

Advertising

Santa Clara Weather History for the Previous 24 Hours

 ConditionsComfort  
Time TempWeatherWind HumidityBarometerVisibility
8:50 AM
Sun, Feb 7
66 °FLight rain. Broken clouds.6 mph100%N/A2 mi
7:50 AM68 °FPartly sunny.8 mph88%30.04 "Hg4 mi
6:50 AM70 °FPassing clouds.6 mph88%30.01 "Hg4 mi
5:58 AM70 °FMild.5 mph88%30.01 "HgN/A
4:58 AM70 °FMild.7 mph94%29.98 "HgN/A
3:58 AM66 °FMild.2 mph100%29.98 "HgN/A
2:58 AM70 °FMild.6 mph94%29.98 "HgN/A
1:58 AM68 °FMild.1 mph88%30.01 "HgN/A
12:58 AM68 °FMild.1 mph88%30.04 "HgN/A
11:58 PM
Sat, Feb 6
66 °FMild.6 mph88%30.04 "HgN/A
10:58 PM66 °FMild.5 mph88%30.04 "HgN/A
9:58 PM68 °FMild.2 mph88%30.07 "HgN/A
8:58 PM68 °FMild.2 mph83%30.04 "HgN/A
7:58 PM70 °FMild.6 mph83%30.04 "HgN/A
6:58 PM73 °FMild.3 mph74%30.04 "HgN/A
5:58 PM77 °FWarm.8 mph65%30.04 "HgN/A
4:58 PM81 °FWarm.9 mph58%30.01 "HgN/A
3:58 PM81 °FWarm.12 mph58%30.01 "HgN/A
2:58 PM82 °FWarm.10 mph55%30.01 "HgN/A
1:58 PM82 °FWarm.10 mph55%30.04 "HgN/A
12:58 PM81 °FWarm.9 mph58%30.07 "HgN/A
11:58 AM81 °FWarm.5 mph58%30.09 "HgN/A
10:51 AM79 °FPartly sunny.6 mph61%30.12 "HgN/A
Weather by CustomWeather, © 2016

See weather overviewHow to use our weather pages